This demonstration page uses our WeatherBlox Daily Observations layout. Learn more.

Hourly Observations for September 28, 2016

Temp ( °F °C ) Dew Point ( °F °C ) Humidity (%) Winds ( mph kmh ) Pressure ( in mb ) Visibility ( mi km ) Precip ( " mm )
12:15 am 00:15 Clear 54 12.1 45 7.1 72 72 NW 3 6 30 1016 10 16.09344 0 0
12:35 am 00:35 Clear 56 13.1 45 7 67 67 NW 6 9 29.97 1015 10 16.09344 0 0
12:55 am 00:55 Clear 55 12.8 44 6.8 67 67 NNW 5 7 29.97 1015 10 16.09344 0 0
1:15 am 01:15 Clear 54 12.2 44 6.5 68 68 NW 6 9 30 1016 10 16.09344 0 0
1:35 am 01:35 Clear 51 10.7 43 6.3 74 74 WNW 5 7 30 1016 10 16.09344 0 0
1:55 am 01:55 Clear 53 11.9 44 6.5 70 70 WNW 6 9 30 1016 10 16.09344 0 0
2:15 am 02:15 Clear 53 11.6 44 6.4 71 71 NW 6 9 30 1016 10 16.09344 0 0
2:35 am 02:35 Clear 52 10.9 44 6.5 75 75 NW 6 9 30.03 1017 10 16.09344 0 0
2:55 am 02:55 Clear 52 11 44 6.5 74 74 NNW 7 11 30.03 1017 10 16.09344 0 0
3:15 am 03:15 Clear 52 11 43 6.2 73 73 NNW 6 9 30.03 1017 10 16.09344 0 0
3:35 am 03:35 Clear 50 10.1 43 6.2 77 77 NNW 6 9 30.03 1017 10 16.09344 0 0
3:55 am 03:55 Clear 51 10.3 43 6.3 76 76 NNW 7 11 30.03 1017 10 16.09344 0 0
4:15 am 04:15 Clear 51 10.8 43 6.2 73 73 NNW 6 9 30.03 1017 10 16.09344 0 0
4:35 am 04:35 Clear 50 10.1 43 6.2 77 77 NNW 6 9 30.06 1018 10 16.09344 0 0
4:55 am 04:55 Clear 49 9.7 43 6.1 78 78 NNW 5 7 30.09 1019 10 16.09344 0 0
5:15 am 05:15 Clear 49 9.3 43 6 80 80 NNW 5 7 30.09 1019 10 16.09344 0 0
5:35 am 05:35 Clear 49 9.4 43 6 80 80 NNW 5 7 30.09 1019 10 16.09344 0 0
5:55 am 05:55 Clear 50 10.2 42 5.8 74 74 NNW 7 11 30.09 1019 10 16.09344 0 0
6:15 am 06:15 Clear 49 9.6 43 6 78 78 N 8 13 30.12 1020 10 16.09344 0 0
6:35 am 06:35 Clear 50 10.1 43 6 76 76 N 7 11 30.09 1019 10 16.09344 0 0
6:55 am 06:55 Clear 50 9.8 43 6 77 77 N 7 11 30.15 1021 10 16.09344 0 0
7:15 am 07:15 Clear 48 9 43 5.9 81 81 N 7 11 30.15 1021 10 16.09344 0 0
7:35 am 07:35 Sunny 48 9 42 5.7 80 80 N 7 11 30.15 1021 10 16.09344 0 0
7:55 am 07:55 Sunny 49 9.3 42 5.7 78 78 N 7 11 30.15 1021 10 16.09344 0 0
8:15 am 08:15 Sunny 49 9.6 43 6 78 78 N 5 7 30.15 1021 10 16.09344 0 0
8:35 am 08:35 Sunny 51 10.6 43 6.1 74 74 N 5 7 30.12 1020 10 16.09344 0 0
8:55 am 08:55 Sunny 54 12 43 6.1 67 67 N 7 11 30.15 1021 10 16.09344 0 0
9:15 am 09:15 Sunny 56 13.1 43 5.9 62 62 N 6 9 30.15 1021 10 16.09344 0 0
9:35 am 09:35 Sunny 58 14.4 42 5.5 55 55 N 6 9 30.15 1021 10 16.09344 0 0
9:55 am 09:55 Sunny 59 15.1 40 4.3 49 49 N 7 11 30.15 1021 10 16.09344 0 0
10:15 am 10:15 Sunny 61 16.1 39 4 45 45 NNE 8 13 30.15 1021 10 16.09344 0 0
10:35 am 10:35 Sunny 63 17.2 36 2 36 36 NNE 10 17 30.15 1021 10 16.09344 0 0
10:55 am 10:55 Sunny 64 18 34 1.3 33 33 NNE 9 15 30.12 1020 10 16.09344 0 0
11:15 am 11:15 Mostly Cloudy with Haze 66 18.7 33 0.7 30 30 NNE 10 17 30.12 1020 1.75 2.816352 0 0
11:35 am 11:35 Hazy 67 19.3 33 0.4 28 28 N 10 17 30.12 1020 2.5 4.02336 0 0
11:55 am 11:55 Hazy 67 19.5 33 0.7 29 29 ENE 10 17 30.15 1021 4 6.437376 0 0
12:15 pm 12:15 Sunny 68 20.1 34 1.1 28 28 NNE 9 15 30.12 1020 10 16.09344 0 0
12:35 pm 12:35 Sunny 69 20.6 33 0.5 26 26 NNE 14 22 30.12 1020 10 16.09344 0 0
12:50 pm 12:50 Sunny 71 21.4 34 1.2 26 26 NNE 9 15 30.09 1019 10 16.09344 0 0
1:15 pm 13:15 Sunny 71 21.5 34 1.3 26 26 NNE 10 17 30.09 1019 10 16.09344 0 0
1:35 pm 13:35 Sunny 72 22.2 33 0.4 24 24 NNE 13 20 30.12 1020 10 16.09344 0 0
1:55 pm 13:55 Sunny 72 22.2 32 0.1 23 23 NNE 13 20 30.09 1019 10 16.09344 0 0
2:15 pm 14:15 Sunny 72 22.4 32 0 23 23 NNE 14 22 30.09 1019 10 16.09344 0 0
2:35 pm 14:35 Sunny 72 22.4 31 -0.7 22 22 NNE 12 19 30.09 1019 10 16.09344 0 0
2:55 pm 14:55 Sunny 73 22.9 29 -1.4 20 20 NNE 13 20 30.09 1019 10 16.09344 0 0
3:15 pm 15:15 Sunny 73 22.9 24 -4.5 16 16 NE 14 22 30.09 1019 10 16.09344 0 0
3:35 pm 15:35 Sunny 73 23 25 -3.8 16 16 N 10 17 30.09 1019 10 16.09344 0 0
3:55 pm 15:55 Sunny 73 23 26 -3.6 17 17 N 10 17 30.09 1019 10 16.09344 0 0
4:15 pm 16:15 Sunny 73 23 24 -4.2 16 16 N 9 15 30.09 1019 10 16.09344 0 0
4:35 pm 16:35 Sunny 73 23 27 -2.8 18 18 NNE 6 9 30.12 1020 10 16.09344 0 0
4:55 pm 16:55 Sunny 73 22.7 27 -2.7 18 18 NNE 9 15 30.12 1020 10 16.09344 0 0
5:15 pm 17:15 Sunny 73 22.6 28 -2.3 19 19 NE 8 13 30.12 1020 10 16.09344 0 0
5:35 pm 17:35 Sunny 73 22.5 28 -2 19 19 N 10 17 30.12 1020 10 16.09344 0 0
5:55 pm 17:55 Sunny 72 22 29 -1.8 20 20 NNE 12 19 30.12 1020 10 16.09344 0 0
6:15 pm 18:15 Sunny 71 21.5 32 0.2 24 24 NE 10 17 30.15 1021 10 16.09344 0 0
6:35 pm 18:35 Sunny 69 20.7 36 2 29 29 NE 12 19 30.15 1021 10 16.09344 0 0
6:55 pm 18:55 Sunny 67 19.5 39 3.9 36 36 NE 7 11 30.18 1022 10 16.09344 0 0
7:15 pm 19:15 Sunny 64 17.9 41 5.2 43 43 ENE 7 11 30.21 1023 10 16.09344 0 0
7:35 pm 19:35 Clear 61 16 42 5.5 50 50 ENE 6 9 30.21 1023 10 16.09344 0 0
7:55 pm 19:55 Clear 58 14.5 43 6 57 57 ENE 8 13 30.24 1024 10 16.09344 0 0
8:15 pm 20:15 Clear 57 13.7 43 6.3 61 61 ENE 7 11 30.24 1024 10 16.09344 0 0
8:35 pm 20:35 Clear 56 13.3 44 6.6 64 64 ENE 8 13 30.27 1025 10 16.09344 0 0
8:55 pm 20:55 Clear 55 12.7 44 6.5 66 66 ENE 8 13 30.27 1025 10 16.09344 0 0
9:15 pm 21:15 Clear 54 12.2 43 6 66 66 ENE 7 11 30.27 1025 7 11.265408 0 0
9:35 pm 21:35 Hazy 54 12.3 42 5.5 63 63 E 6 9 30.3 1026 2 3.218688 0 0
9:55 pm 21:55 Mostly Cloudy with Haze 52 11 41 5.2 68 68 E 6 9 30.33 1027 1.75 2.816352 0 0
10:15 pm 22:15 Hazy 51 10.6 41 5 69 69 E 7 11 30.33 1027 2.5 4.02336 0 0
10:35 pm 22:35 Clear 51 10.8 41 4.8 67 67 E 6 9 30.33 1027 10 16.09344 0 0
10:55 pm 22:55 Clear 50 10 40 4.6 69 69 E 5 7 30.33 1027 10 16.09344 0 0
11:15 pm 23:15 Clear 48 8.9 40 4.2 73 73 E 5 7 30.39 1029 10 16.09344 0 0
11:35 pm 23:35 Clear 49 9.3 40 4.6 73 73 E 5 7 30.36 1028 10 16.09344 0 0
11:55 pm 23:55 Clear 47 8.6 40 4.4 75 75 Calm 30.39 1029 10 16.09344 0 0

Powered by AerisWeather